SL-8 R/B, 3048

Orbit data source: Space-Track

SL-8 R/B, 3048 is space debris in LEO originally from a launch on Thu, 23 Nov 1967 UTC launched from the Plesetsk Missile And Space Complex (PKMTR). Debris objects in space refer to the collection of defunct objects orbiting the Earth. Examples of debris include non-operational satellites, rocket bodies, and fragments generated from explosions, collisions, or faulty payload assembly.

Loading next visibility...
Identifier
3048, 1967-116B
Orbit
LEO
Country
Flag of CISCIS
Related business
Manufacturer
Yuzhnoe
Mission
Spacecraft
Bus & Motor
S3, Unknown motor
Mass
1,434 kg wet, 1,434 kg dry
Launch date (UTC)
1967-11-23 (58 years ago)
Launch vehicle
Unknown
Launch site
Plesetsk Missile And Space Complex (PKMTR)
Object type
Payload
Rocket body
Debris
Shape & HBR
Cyl, 2.1 m
Radar Cross Section
10.179 m², Large (>1 m²)

Expand to show TLE details & history
Last TLE update: 13 hours ago

TLE from 13 hours ago
0 SL-8 R/B
1 03048U 67116B   25259.06866774  .00000564  00000-0  11603-3 0  9992
2 03048  74.0090  16.0475 0007362 207.5226 325.3670 14.62983304 65942
Epoch: 2025-09-16T01:38Z
TLE epoch observation values (Epoch: 2025-09-16T01:38:52.892Z)
Latitude
6.81061°
Longitude
174.11204°
Altitude
681.296 km
Speed
7.519 km/s
True Right ascension
12h 56m 23s
True Declination
6° 46' 11"
Sunlit
Object was in daylight at epoch
Visualization orbit readout
Latitude
Unknown
Longitude
Unknown
Altitude
Unknown
Speed
Unknown
Apparent Right ascension
Unknown
Apparent Declination
Unknown
Sunlit
N/A
Visualization observer readout
Local Sidereal Time
07:12:05
Azimuth
Unknown
Elevation
Unknown
Doppler factor
Unknown
Orbital elements
Apogee altitude
686.351 km
Perigee altitude
675.957 km
Semi-major axis
7,059.291 km
Eccentricity
0.00074
Inclination
74.009°
RAAN
16.0475°
Arg. of periapsis
207.5226°
True anomaly
325.31902°
Mean anomaly
325.367°
Eccentric anomaly
325.34301°
Mean motion
3.65933 °/min
Orbital period
98.38 mins
BSTAR
0.00011603
Loading maneuver chart data...
Computing Atmospheric mass density...
Loading historical data...
Loading historical data...
Loading historical data...
Loading historical data...
Loading historical data...
Loading historical data...
Loading historical data...

Documentation

Showing up to 5 results
|